Skip Navigation Linkswww.weather.gov 
NOAA logo - Click to go to the NOAA homepage National Weather Service Forecast Office   NWS logo - Click to go to the NWS homepage    
Phoenix, Arizona
navigation bar decoration      
spacer
Printer Friendly Version
Other products available: (Warning...these products may no longer be valid!)

HOURLY WEATHER ROUNDUP


 
 ASUS45 KPSR 060210
 RWRAZ 
 
 ARIZONA REGIONAL HOURLY WEATHER ROUNDUP
 NATIONAL WEATHER SERVICE PHOENIX AZ
 700 PM MST THU MAR 05 2015
 
 NOTE: FAIR INDICATES FEW OR NO CLOUDS BELOW 12,000 FEET WITH NO
 SIGNIFICANT WEATHER AND/OR OBSTRUCTIONS TO VISIBILITY.
 
 AZZ001>003-036-060300-
 NORTHWEST ARIZONA
   
 CITY           SKY/WX    TMP DP  RH WIND       PRES   REMARKS
 BULLHEAD CITY  CLEAR     66  23  19 N17G23    30.23S                  
 KINGMAN        CLEAR     48  30  49 NE5       30.29R                  
 $$
 
 AZZ004>008-015-016-018-060300-
 NORTH CENTRAL ARIZONA
   
 CITY           SKY/WX    TMP DP  RH WIND       PRES   REMARKS
 GRAND CANYON   CLEAR     28  19  69 CALM      30.37R                  
 PRESCOTT       PTCLDY    52  11  19 W3        30.29S                  
 FLAGSTAFF      PTCLDY    34  18  52 E3        30.37R                  
 PAYSON         PTCLDY    50  12  22 N6        30.31R                  
 PAGE           CLEAR     46  23  40 CALM      30.35R                  
 $$
 
 AZZ009>014-017-060300-
 NORTHEAST ARIZONA
   
 CITY           SKY/WX    TMP DP  RH WIND       PRES   REMARKS
 WINSLOW        PTCLDY    40  16  37 NW5       30.35R                  
 SAINT JOHNS    MOCLDY    42   6  22 NW7       30.32R                  
 WINDOW ROCK    CLEAR     39  15  37 E9        30.36R WCI  33          
 SHOW LOW       PTCLDY    37  10  32 N5        30.37R WCI  34          
 $$
 
 AZZ023-060300-
 GREATER PHOENIX AREA
   
 CITY           SKY/WX    TMP DP  RH WIND       PRES   REMARKS
 PHOENIX        CLEAR     73  13  10 CALM      30.15R                  
 BUCKEYE        CLEAR     61  39  44 SW3       30.17S                  
 GLENDALE       CLEAR     66  23  19 CALM      30.17S                  
 LUKE AFB       CLEAR     67  28  23 SW5       30.15S                  
 DEER VALLEY    CLEAR     68  15  13 W5        30.16R                  
 SCOTTSDALE     CLEAR     68  18  14 CALM      30.18R                  
 MESA-FALCON    CLEAR     68  19  15 VRB6      30.16S                  
 MESA-GATEWAY   CLEAR     66  28  24 W3        30.18S                  
 CHANDLER       CLEAR     66  25  20 VRB5      30.16S                  
 $$
 
 AZZ027-028-060300-
 SOUTHWEST MARICOPA COUNTY AND PINAL COUNTY
   
 CITY           SKY/WX    TMP DP  RH WIND       PRES   REMARKS
 CASA GRANDE    CLEAR     63  25  23 NW6       30.17S                  
 GILA BEND      CLEAR     63  29  27 N3        30.16R                  
 $$
 
 AZZ503-504-507>509-060300-
 SOUTHEAST ARIZONA
   
 CITY           SKY/WX    TMP DP  RH WIND       PRES   REMARKS
 TUCSON         CLEAR     64  18  17 NE14      30.19R                  
 DAVIS-MONTHAN  CLEAR     62  18  18 NE16      30.17R                  
 RYAN FIELD       N/A     64  21  19 E9G17     30.18R                  
 NOGALES        CLEAR     56  23  27 SE13      30.18R                  
 SIERRA VISTA   CLEAR     50  25  37 SE12      30.23R                  
 DOUGLAS        CLEAR     51  25  36 E15       30.25R                  
 SAFFORD        CLEAR     57  17  21 SE9       30.25R                  
 $$
 
 AZZ020-021-025-026-031-060300-
 SOUTHWEST ARIZONA
   
 CITY           SKY/WX    TMP DP  RH WIND       PRES   REMARKS
 YUMA           CLEAR     70  29  21 N13       30.15S                  
 $$
 
 CAZ031-033-041-043-047-048-061-060300-
 SOUTHERN CALIFORNIA
   
 CITY           SKY/WX    TMP DP  RH WIND       PRES   REMARKS
 DOWNTOWN L.A.  CLEAR     68  22  17 W6        30.17S                  
 L.A. AIRPORT   CLEAR     64  36  35 W12       30.18S                  
 SAN DIEGO      CLEAR     68  27  21 N12       30.15R                  
 BURBANK        CLEAR     67  19  16 S3        30.17S                  
 ONTARIO        CLEAR     66  27  23 W6        30.17S                  
 RIVERSIDE      CLEAR     72  10   9 N7        30.17R                  
 PALM SPRINGS   CLEAR     72  21  14 W5        30.21R                  
 EL CENTRO NAS  PTCLDY    70  24  17 W3        30.17S                  
 IMPERIAL       CLEAR     66  35  31 W3        30.16S                  
 BLYTHE         CLEAR     67  36  31 E3        30.19S                  
 NEEDLES        CLEAR     66  21  18 N10       30.22S                  
 $$
 
 NVZ020-UTZ003-060300-
 SOUTHERN NEVADA-UTAH
   
 CITY           SKY/WX    TMP DP  RH WIND       PRES   REMARKS
 LAS VEGAS      CLEAR     61  23  23 CALM      30.26S                  
 SALT LAKE CITY PTCLDY    44  19  36 NE3       30.41R                  
 $$
 
 NMZ009-TXZ055-060300-
 NEW MEXICO-WEST TEXAS
   
 CITY           SKY/WX    TMP DP  RH WIND       PRES   REMARKS
 ALBUQUERQUE    CLEAR     48   9  20 N9        30.33R                  
 EL PASO        CLEAR     46  21  37 S6        30.35R                  
 $$
 
 
 ........................KEY........................
 SKY/WX - SKY CONDITION/WEATHER
 TMP    - TEMPERATURE IN FAHRENHEIT
 DP     - DEW POINT IN FAHRENHEIT
 RH     - RELATIVE HUMIDITY IN PERCENT
 WIND   - DIRECTION AND SPEED IN MILES PER HOUR (MPH)
 VRB    - VARIABLE WIND DIRECTION
 PRES   - MEAN SEA LEVEL PRESSURE IN INCHES OF MERCURY
          F - FALLING PRESSURE   R - RISING PRESSURE
          S - STEADY PRESSURE
 VSB    - VISIBILITY IN MILES
 HX     - HEAT INDEX IN FAHRENHEIT
 WCI    - WIND CHILL INDEX IN FAHRENHEIT
 TC     - TEMPERATURE IN CELSIUS WHICH IS ALSO KNOWN AS
          TEMPERATURE IN CENTIGRADE
 AFB    - AIR FORCE BASE
          LUKE AFB IS LUKE AIR FORCE BASE
          DAVIS-MONTHAN IS DAVIS-MONTHAN AIR FORCE BASE
 NAS    - NAVAL AIR STATION
          EL CENTRO NAS IS EL CENTRO NAVAL AIR STATION
 N/A    - NOT AVAILABLE
 
 

Webmaster
US Dept of Commerce
National Oceanic and Atmospheric Administration
National Weather Service
Phoenix Weather Forecast Office
P.O. Box 52025
Phoenix, AZ 85072

Tel: (602) 275-0073

Disclaimer
Information Quality
Credits
Glossary
Organization
Privacy Policy
Freedom of Information Act
About Us
Career Opportunities